CZ-3C DEB, 40203

Orbit data source: Space-Track

CZ-3C DEB, 40203 is space debris in HEO originally from a launch on Fri, 24 Feb 2012 UTC launched from the Xichang Space Center, China (XSC). Debris objects in space refer to the collection of defunct objects orbiting the Earth. Examples of debris include non-operational satellites, rocket bodies, and fragments generated from explosions, collisions, or faulty payload assembly.

Loading next visibility...
Identifier
40203, 2012-008N
Orbit
HEO
Country
Flag of CNCN / PRC
Related business
Manufacturer
CALT
Mission
Spacecraft
Bus & Motor
Unknown
Mass
Unknown
Launch date (UTC)
2012-02-24 (14 years ago)
Launch vehicle
Unknown
Launch site
Xichang Space Center, China (XSC)
Object type
Payload
Rocket body
Debris
Shape & HBR
Unknown shape, 0.3 m
Radar Cross Section
Medium (>0.1 m² and <1 m²)

Expand to show TLE details & history
Last TLE update: 1 week ago

TLE from 1 week ago
0 CZ-3C DEB
1 40203U 12008N   26228.89289599  .00000054  00000-0  66747-3 0  9991
2 40203  20.3796 173.5425 7121760 209.7013  77.1086  2.35059678108824
Epoch: 2026-08-16T21:25Z
TLE epoch observation values (Epoch: 2026-08-16T21:25:46.213Z)
Latitude
0.00012°
Longitude
-113.1883°
Altitude
24,540.011 km
Speed
3.017 km/s
True Right ascension
11h 34m 08s
True Declination
0° 00' 00"
Sunlit
Object was in daylight at epoch
Visualization orbit readout
Latitude
Unknown
Longitude
Unknown
Altitude
Unknown
Speed
Unknown
Apparent Right ascension
Unknown
Apparent Declination
Unknown
Sunlit
N/A
Visualization observer readout
Local Sidereal Time
20:02:36
Azimuth
Unknown
Elevation
Unknown
Doppler factor
Unknown
Orbital elements
Apogee altitude
34,539.541 km
Perigee altitude
500.297 km
Semi-major axis
23,898.056 km
Eccentricity
0.71218
Inclination
20.3796°
RAAN
173.5425°
Arg. of periapsis
209.7013°
True anomaly
150.34292°
Mean anomaly
77.1086°
Eccentric anomaly
114.29854°
Mean motion
0.58749 °/min
Orbital period
612.78 mins
BSTAR
0.00066747
Loading maneuver chart data...
Computing Atmospheric mass density...
Loading historical data...
Loading historical data...
Loading historical data...
Loading historical data...
Loading historical data...
Loading historical data...
Loading historical data...

Documentation

Showing up to 5 results
|